Regional Weather Roundup
Issued by NWS

Home | Current Version | Previous Version | Graphics & Text | Print | Product List | Glossary On
Versions: 1 2 3 4 5 6 7 8 9 10 11 12 13 14 15 16 17 18 19 20 21 22 23 24 25 26 27 28 29 30 31 32 33 34 35 36 37 38 39 40 41 42 43 44 45 46 47 48 49 50
000
ASUS43 KLMK 231810
RWRKY
KENTUCKY REGIONAL WEATHER ROUNDUP
NATIONAL WEATHER SERVICE LOUISVILLE KY
200 PM EDT WED JUL 23 2014

NOTE "FAIR" INDICATES FEW OR NO CLOUDS BELOW 12,000 FEET
WITH NO SIGNIFICANT WEATHER AND/OR OBSTRUCTIONS TO VISIBILITY.

KYZ001>023-026-027-061>063-070>075-231900-
WESTERN AND SOUTH CENTRAL KENTUCKY

CITY           SKY/WX    TMP DP  RH WIND       PRES   REMARKS
PADUCAH        CLOUDY    75  69  81 S14G26    29.98F
HENDERSON      CLOUDY    79  70  73 NW7       29.99S
OWENSBORO      CLOUDY    78  72  82 NE9       30.02R
HOPKINSVILLE   PTSUNNY   88  74  62 W9        30.05F HX  96
BOWLING GREEN  CLOUDY    89  70  53 W12       30.03F HX  94
GLASGOW        PTSUNNY   89  69  52 SW7       30.02F HX  93
$$

KYZ024-025-028>034-038-045-046-053-231900-
NORTH CENTRAL KENTUCKY

CITY           SKY/WX    TMP DP  RH WIND       PRES   REMARKS
LOUISVILLE/SDF CLOUDY    83  73  72 W8        30.02S
LOUISVILLE/LOU LGT RAIN  81  71  71 N10       30.03S
FORT KNOX      CLOUDY    83  75  76 W6        30.02R HX  90
$$

KYZ035>037-039>044-047>052-055>060-089>105-231900-
NORTHEAST KENTUCKY

CITY           SKY/WX    TMP DP  RH WIND       PRES   REMARKS
LEXINGTON      CLOUDY    80  72  76 S5        30.05F
COVINGTON      CLOUDY    73  67  81 S8        29.98F
FRANKFORT      CLOUDY    79  73  82 CALM      30.04S
$$

KYZ054-064>069-076>088-106>120-231900-
SOUTHEAST KENTUCKY

CITY           SKY/WX    TMP DP  RH WIND       PRES   REMARKS
JACKSON        MOSUNNY   82  71  69 CALM      30.07F
LONDON         MOSUNNY   89  70  53 NW7       30.06F HX  94
SOMERSET       PTSUNNY   81  70  69 W3        30.07F
MIDDLESBORO    MOSUNNY   81  72  74 S5        30.07F THUNDER
MONTICELLO     PTCLDY    88  73  60 NW8       30.08F HX  95
$$



USA.gov is the U.S. government's official web portal to all federal, state and local government web resources and services.